Location: Brompton
(51.4000°N, 0.5333°E)
Time: 04:02:41
(UTC+00:00)

Cosmos 1933 Rocket - Pass Details

Date: 11 May 2021
Orbit: 606 x 630 km, 82.5° (Epoch: 13 June)

Event Time Altitude Azimuth Distance (km) Brightness Sun altitude
Rises 20:58:22 0° 351° (N) 2,881 8.0 -10.6°
Reaches altitude 10° 21:00:37 10° 354° (N) 1,971 7.0 -10.8°
Maximum altitude 21:04:57 67° 77° (ENE) 661 3.6 -11.3°
Enters shadow 21:08:27 15° 159° (SSE) 1,633 5.1 -11.6°
